Location: Frizzleburg
(41.0764°N, 80.4548°W)
Time: 18:55:43
(UTC+00:00)

Cosmos 2278 - Pass Details

Date: 17 November 2019
Orbit: 838 x 854 km, 71.1° (Epoch: 14 December)

Event Time Altitude Azimuth Distance (km) Brightness Sun altitude
Rises 00:05:15 0° 216° (SW) 3,388 7.4 -23.1°
Reaches altitude 10° 00:07:44 10° 221° (SW) 2,459 6.7 -23.6°
Maximum altitude 00:13:14 52° 298° (WNW) 1,042 4.4 -24.6°
Enters shadow 00:17:27 17° 10° (N) 2,003 5.5 -25.4°
